This demonstration page uses our WeatherBlox Daily Observations layout. Learn more.

Left ArrowRight Arrow

Hourly Observations for December 17, 2015

Temp ( °F °C ) Dew Point ( °F °C ) Humidity (%) Winds ( mph kmh ) Pressure ( in mb ) Visibility ( mi km ) Precip ( " mm )
12:58 am 00:58 Cloudy 31 -0.5 22 -5.5 69 69 NW 15 24 29.96 1015 10 16 0.00 0.00
1:58 am 01:58 Cloudy 31 -0.4 22 -5.6 68 68 NW 15 24 29.98 1015 10 16 0.00 0.00
2:58 am 02:58 Cloudy 31 -0.4 22 -5.4 69 69 NW 8 13 29.99 1016 10 16 0.00 0.00
3:58 am 03:58 Cloudy 31 -0.4 24 -4.7 73 73 WNW 8 13 30.00 1016 10 16 0.00 0.00
4:58 am 04:58 Cloudy 31 -0.7 23 -5.1 72 72 WNW 16 26 30.01 1016 10 16 0.00 0.00
5:58 am 05:58 Cloudy 31 -0.8 22 -5.4 71 71 NW 8 13 30.03 1017 10 16 0.00 0.00
6:58 am 06:58 Cloudy 31 -0.8 22 -5.8 69 69 NW 13 20 30.05 1018 10 16 0.00 0.00
7:58 am 07:58 Cloudy 30 -0.9 20 -6.7 65 65 NW 10 17 30.07 1018 10 16 0.00 0.00
8:37 am 08:37 Cloudy with Light Wintry Mix 32 0 18 -8 55 55 NW 14 22 30.09 1019 10 16 0.00 0.00
8:46 am 08:46 Cloudy 32 0 18 -8 55 55 NW 12 19 30.09 1019 10 16 0.00 0.00
8:58 am 08:58 Cloudy 31 -0.8 18 -8 59 59 WNW 12 19 30.08 1019 10 16 0.00 0.03
9:58 am 09:58 Cloudy 31 -0.4 18 -7.6 59 59 NW 14 22 30.10 1019 10 16 0.00 0.00
10:58 am 10:58 Partly Cloudy 33 0.4 19 -7.5 56 56 NW 14 22 30.11 1020 10 16 0.00 0.00
11:58 am 11:58 Sunny 33 0.6 18 -7.8 54 54 NW 12 19 30.10 1019 10 16 0.00 0.00
12:58 pm 12:58 Sunny 35 1.7 18 -7.7 50 50 W 9 15 30.09 1019 10 16 0.00 0.00
1:59 pm 13:59 Sunny 35 1.7 18 -8 49 49 WNW 13 20 30.09 1019 10 16 0.00 0.00
2:58 pm 14:58 Sunny 35 1.4 17 -8.5 48 48 WNW 16 26 30.09 1019 10 16 0.00 0.00
3:58 pm 15:58 Sunny 33 0.6 16 -8.9 49 49 WNW 13 20 30.10 1019 10 16 0.00 0.00
4:58 pm 16:58 Clear 31 -0.6 16 -9 53 53 WNW 13 20 30.11 1020 10 16 0.00 0.00
5:58 pm 17:58 Partly Cloudy 30 -1.3 16 -8.9 57 57 W 10 17 30.12 1020 10 16 0.00 0.00
6:58 pm 18:58 Clear 29 -1.9 14 -9.8 55 55 WNW 14 22 30.15 1021 10 16 0.00 0.00
7:58 pm 19:58 Clear 27 -2.8 14 -10 58 58 W 10 17 30.16 1021 10 16 0.00 0.00
8:58 pm 20:58 Clear 26 -3.2 14 -9.8 61 61 WNW 10 17 30.17 1022 10 16 0.00 0.00
9:58 pm 21:58 Clear 24 -4.2 13 -10.3 63 63 WNW 7 11 30.17 1022 10 16 0.00 0.00
10:58 pm 22:58 Clear 24 -4.6 14 -9.8 67 67 W 7 11 30.16 1021 10 16 0.00 0.00
11:58 pm 23:58 Clear 22 -5.4 14 -10 70 70 W 6 9 30.15 1021 10 16 0.00 0.00

Powered by AerisWeather